Regional Weather Roundup
Issued by NWS Albany, NY

Home | Current Version | Previous Version | Text Only | Print | Product List | Glossary On
Versions: 1 2 3 4 5 6 7 8 9 10 11 12 13 14 15 16 17 18 19 20 21 22 23 24 25 26 27 28 29 30 31 32 33 34 35 36 37 38 39 40 41 42 43 44 45 46 47 48 49 50
000
ASUS41 KALY 200210
RWRALY

NEW YORK STATE HOURLY WEATHER ROUNDUP
NATIONAL WEATHER SERVICE ALBANY NY
900 PM EST SUN NOV 19 2017

NOTE: "FAIR" INDICATES FEW OR NO CLOUDS BELOW 12,000 FEET WITH NO
SIGNIFICANT WEATHER AND/OR NO OBSTRUCTIONS TO VISIBILITY.

NYZ032-033-038>043-046>054-057>066-NYZ062>081-082-084-200300-
EAST


CITY           SKY/WX    TMP DP  RH WIND       PRES   REMARKS
ALBANY         MOCLDY    35  26  69 W12       29.68R WCI  27
GLENS FALLS    CLOUDY    35  21  56 W10       29.64R WCI  27
POUGHKEEPSIE   CLOUDY    39  25  57 SW9       29.71R WCI  33
MONTGOMERY     CLOUDY    39  27  62 W8        29.71R WCI  33
WHITE PLAINS   CLOUDY    41  25  53 NW12      29.71R
ISLIP          PTCLDY    42  26  53 W8        29.71R
NEW YORK CITY  CLOUDY    46  27  47 W14G23    29.73R
CENTRAL PARK   CLOUDY    45  26  47 W9        29.75R
$$

NYZ005>009-017-018-044>046-055-056-200300-
CENTRAL


CITY           SKY/WX    TMP DP  RH WIND       PRES   REMARKS
FULTON         CLOUDY    34  30  85 NW13      29.72R WCI  25
SYRACUSE       FLURRIES  32  30  92 W15       29.72R WCI  22
ROME           CLOUDY    33  29  85 W8        29.70R WCI  26
ELMIRA         CLOUDY    36  23  59 W13G18    29.77R WCI  27
BINGHAMTON     CLOUDY    30  24  78 NW13G25   29.69R WCI  20
MONTICELLO     FLURRIES  32  30  92 W12       29.69R WCI  23
$$

NYZ026>034-041>043-087-200300-
NORTH


CITY           SKY/WX    TMP DP  RH WIND       PRES   REMARKS
WATERTOWN      CLOUDY    31  27  85 NW9       29.70R WCI  23
FORT DRUM      NOT AVBL
OGDENSBURG     FAIR      30  25  84 NW8       29.67R WCI  22
MASSENA        CLOUDY    28  22  78 W17       29.68R WCI  16
SARANAC LAKE   CLOUDY    25  22  88 VRB6G21   29.57R WCI  18
PLATTSBURGH    CLOUDY    31  21  66 W8        29.60R WCI  23
$$

NYZ001>004-010>016-019>021-085-200300-
WEST


CITY           SKY/WX    TMP DP  RH WIND       PRES   REMARKS
NIAGARA FALLS  CLOUDY    34  22  61 W15       29.83R WCI  24
BUFFALO        CLOUDY    32  23  69 W13       29.82R WCI  22
DUNKIRK        FLURRIES  34  26  72 NW18G36   29.85R WCI  23
JAMESTOWN      FLURRIES  28  24  85 NW16      29.81R WCI  16
WELLSVILLE     LGT SNOW  29  24  82 NW15      29.77R VSB 1   WCI  18
ROCHESTER      FLURRIES  33  22  63 NW17G28   29.79R WCI  22
PENN YAN       CLOUDY    33  21  61 W10G21    29.76R WCI  25
$$

             KEY
       WCI = WIND CHILL INDEX
       VSB = VISIBILITY
       HX  = HEAT INDEX
$$



USA.gov is the U.S. government's official web portal to all federal, state and local government web resources and services.